578  
ASUS41 KLWX 260111  
RWRLWX  
 
REGIONAL WEATHER ROUNDUP  
NATIONAL WEATHER SERVICE BALTIMORE MD/WASHINGTON DC  
900 PM EDT SUN JUN 25 2017  
 
NOTE: "FAIR" INDICATES FEW OR NO CLOUDS BELOW 12,000 FEET  
WITH NO SIGNIFICANT WEATHER AND/OR S TO VISIBILITY
.  
TC=TEMPERATURE CELSIUS  
 
* =NON NWS SITE. STATION DOES NOT REPORT PRECIPITATION (E.G. RAIN,  
SNOW, ETC.), THUNDER, OR FOG.
 
 
DCZ001-MDZ009-015-VAZ040>042-051-053>054-260200-  
WASHINGTON METRO  
 
CITY SKY/WX TMP DP RH WIND PRES REMARKS
 
WASHINGTON NAT MOCLDY 79 46 31 NW10 30.03R  
DULLES MOCLDY 74 45 35 NW6 30.03S  
ANDREWS AFB PTCLDY 78 44 30 NW10 30.02R  
FT BELVOIR PTCLDY 78 45 30 NW6 30.02R  
QUANTICO MOCLDY 78 48 34 N8 30.03R  
COLLEGE PARK* CLEAR 77 46 33 NW3 30.02R  
LEESBURG* CLEAR N/A N/A N/A W5 30.05S  
MANASSAS* PTCLDY 72 51 47 N5 30.04R  
GAITHERSBURG* CLEAR 69 49 48 W6 30.05R  
 

 
 
MDZ006>007-011-014-260200-  
BALTIMORE METRO  
 
CITY SKY/WX TMP DP RH WIND PRES REMARKS
 
BWI AIRPORT PTCLDY 75 49 39 NW9 30.01R  
MD SCIENCE CTR N/A 80 47 31 MISG 30.02R  
MARTIN STATE PTCLDY 79 50 36 W17 30.02R  
ANNAPOLIS CLEAR 76 52 43 W6 30.00R  
FORT MEADE* CLEAR 70 52 52 NW5 30.04R  
 

 
 
MDZ012-015-019>023-260200-  
MARYLAND EASTERN SHORE  
 
CITY SKY/WX TMP DP RH WIND PRES REMARKS
 
OCEAN CITY MOCLDY 73 69 87 SW5 30.00S  
SALISBURY MOCLDY 76 64 66 W6 30.00R  
BAY BRIDGE AP* PTCLDY 79 52 38 NW10 30.01R  
CAMBRIDGE* MOCLDY 75 66 73 CALM 29.99S  
EASTON* MOCLDY 79 50 36 NW6 30.04R  
 

 
 
MDZ017>025-260200-  
SOUTHERN MARYLAND  
 
CITY SKY/WX TMP DP RH WIND PRES REMARKS
 
PATUXENT RIVER CLOUDY 77 66 68 SW3 30.00R  
ST INIGOES CLOUDY 79 66 64 SE5 30.00R  
LEONARDTOWN* CLOUDY 73 64 73 CALM 30.03R  
 

 
 
MDZ003>005-260200-  
NORTH CENTRAL MARYLAND  
 
CITY SKY/WX TMP DP RH WIND PRES REMARKS
 
FREDERICK* NOT AVBL  
HAGERSTOWN APT CLEAR 74 47 38 W7 30.04R  
WESTMINSTER* CLEAR 75 48 38 W6 30.04S  
 

 
 
MDZ501>502-260200-  
WESTERN MARYLAND  
 
CITY SKY/WX TMP DP RH WIND PRES REMARKS
 
OAKLAND* NOT AVBL  
CUMBERLAND* CLEAR 72 45 37 W5 30.10R  
 

 
 
VAZ025>031-260200-  
SHENANDOAH VALLEY  
 
CITY SKY/WX TMP DP RH WIND PRES REMARKS
 
WINCHESTER* CLEAR 70 46 43 W3 30.05S  
FRONT ROYAL* CLEAR 70 46 43 CALM 30.05S  
LURAY* CLEAR 72 45 37 CALM 30.07S  
NEW MARKET* CLEAR 64 47 54 CALM 30.07R  
STAUNTON* CLEAR 69 45 41 CALM 30.11S  
WAYNESBORO* CLEAR 67 47 48 CALM 30.11R  
 

 
 
WVZ021-048>050-054>055-260200-  
EASTERN WEST VIRGINIA PANHANDLE  
 
CITY SKY/WX TMP DP RH WIND PRES REMARKS
 
MARTINSBURG CLEAR 70 46 42 W3 30.03S  
PETERSBURG* CLEAR 67 52 58 W5 30.09R  
 

 
 
VAZ036>039-050-260200-  
CENTRAL FOOTHILLS  
 
CITY SKY/WX TMP DP RH WIND PRES REMARKS
 
CHARLOTTESVILL CLEAR 73 49 42 CALM 30.06R  
CULPEPER* CLEAR 74 49 40 CALM 30.05R  
ORANGE* CLEAR 72 46 40 NW3 30.05R  
GORDONSVILLE* CLEAR 75 47 36 CALM 30.05R  
WARRENTON* CLEAR 70 48 46 CALM 30.03S  
 

 
 
VAZ055>057-260200-  
NORTH AND CENTRAL PIEDMONT  
 
CITY SKY/WX TMP DP RH WIND PRES REMARKS
 
FREDERICKSBRG* CLOUDY 79 54 41 N5 30.03R  
STAFFORD* PTCLDY 71 49 45 NW6 30.07R  
 

 
 
NCZ024-NYZ072-PAZ021-071-VAZ022-071-260200-  
OTHER REGIONAL OBSERVATIONS  
 
CITY SKY/WX TMP DP RH WIND PRES REMARKS
 
NEW YORK CITY PTCLDY 75 60 59 CALM 29.96R  
PHILADELPHIA MOCLDY 81 52 36 W10 29.97R  
PITTSBURGH PTCLDY 68 47 46 NW8 30.06R  
ROANOKE PTCLDY 69 46 43 NW8 30.15R  
RICHMOND MOCLDY 78 58 49 W8 30.04R  
RALEIGH CLOUDY 74 67 78 W3 30.09R  
 

 
 
ANZ530>537-260200-  
MARINE OBSERVATIONS  
 
STATION/POSITION TIME TEMP WIND PRES
 
AIR SEA DIR/SP/G  
(UTC) (F) (DEG/KT/KT) (MB)  
THOMAS PT LIGHT 0100 79 79 310/ 13/ 15 N/A  
BALT KEY BRIDGE 0048 80 300/ 17/ 18 1015.5R  
COVE POINT 0048 79 290/ 5/ 6 1016.6R  
LEWISETTA 0048 79 81 210/ 4/ 4 1016.2R  
SOLOMONS ISLAND 0042 79 79 260/ 4/ 5 N/A  
PINEY POINT 0042 250/ 4/ 7 N/A  
 

 
 
 
 
CLICK HERE TO GO TO PREVIOUS BULLETINS.

The Nexlab VA Page
The Nexlab MD Page
The Nexlab WV Page Main Text Page